• Em Portugal
  • Lista de países
  • Para 7 dias
  • Temperatura da água
  • Mapas de satélite
  • Mapa do tempo
  • Widgets de tempo
  • user-avatar
    Iniciar Sessão

    Previsão horária em Mariental

    Hoje, 15 Dezembro, Sexta-feira

    Tempo Temperatura Precipitação Vento Pressão Humidade
    00:00 +28°C° 0 mm 5 m/s 667 mmHg 16%
    01:00 +27°C° 0 mm 3 m/s 667 mmHg 17%
    02:00 +26°C° 0 mm 3 m/s 667 mmHg 18%
    03:00 +26°C° 0 mm 3 m/s 668 mmHg 19%
    04:00 +25°C° 0 mm 2 m/s 668 mmHg 20%
    05:00 +26°C° 0 mm 3 m/s 668 mmHg 19%
    06:00 +27°C° 0 mm 4 m/s 669 mmHg 18%
    07:00 +28°C° 0 mm 5 m/s 669 mmHg 17%
    08:00 +32°C° 0 mm 5 m/s 669 mmHg 15%
    09:00 +34°C° 0 mm 6 m/s 669 mmHg 13%
    10:00 +36°C° 0 mm 6 m/s 669 mmHg 11%
    11:00 +38°C° 0 mm 6 m/s 669 mmHg 11%
    12:00 +39°C° 0 mm 6 m/s 669 mmHg 12%
    13:00 +41°C° 0 mm 5 m/s 668 mmHg 12%
    14:00 +40°C° 0 mm 5 m/s 668 mmHg 13%
    15:00 +40°C° 0 mm 6 m/s 667 mmHg 14%
    16:00 +40°C° 0 mm 6 m/s 667 mmHg 15%
    17:00 +39°C° 0 mm 6 m/s 667 mmHg 17%
    18:00 +37°C° 0 mm 5 m/s 667 mmHg 19%
    19:00 +36°C° 0 mm 5 m/s 667 mmHg 21%
    20:00 +36°C° 0,1 mm 5 m/s 667 mmHg 21%
    21:00 +35°C° 0,1 mm 5 m/s 668 mmHg 21%
    22:00 +34°C° 0,1 mm 5 m/s 668 mmHg 21%
    23:00 +33°C° 0,2 mm 4 m/s 668 mmHg 22%

    Amanhã, 16 Dezembro, Sábado

    Tempo Temperatura Precipitação Vento Pressão Humidade
    00:00 +32°C° 0,2 mm 4 m/s 667 mmHg 23%
    01:00 +30°C° 0,2 mm 3 m/s 667 mmHg 24%
    02:00 +29°C° 0 mm 4 m/s 667 mmHg 25%
    03:00 +28°C° 0 mm 4 m/s 667 mmHg 25%
    04:00 +28°C° 0 mm 4 m/s 666 mmHg 25%
    05:00 +28°C° 0 mm 4 m/s 667 mmHg 24%
    06:00 +29°C° 0 mm 3 m/s 667 mmHg 22%
    07:00 +29°C° 0 mm 3 m/s 667 mmHg 21%
    08:00 +32°C° 0 mm 4 m/s 668 mmHg 20%
    09:00 +34°C° 0 mm 5 m/s 668 mmHg 19%
    10:00 +36°C° 0 mm 6 m/s 668 mmHg 18%
    11:00 +38°C° 0 mm 6 m/s 668 mmHg 18%
    12:00 +39°C° 0 mm 7 m/s 668 mmHg 18%
    13:00 +40°C° 0 mm 8 m/s 667 mmHg 17%
    14:00 +40°C° 0 mm 8 m/s 667 mmHg 18%
    15:00 +40°C° 0 mm 8 m/s 666 mmHg 18%
    16:00 +39°C° 0 mm 7 m/s 666 mmHg 19%
    17:00 +38°C° 0 mm 7 m/s 666 mmHg 19%
    18:00 +38°C° 0 mm 6 m/s 666 mmHg 19%
    19:00 +36°C° 0 mm 5 m/s 666 mmHg 20%
    20:00 +34°C° 0 mm 4 m/s 667 mmHg 22%
    21:00 +31°C° 0 mm 3 m/s 667 mmHg 23%
    22:00 +30°C° 0 mm 3 m/s 668 mmHg 25%
    23:00 +29°C° 0 mm 2 m/s 667 mmHg 27%

    Depois de amanhã, 17 Dezembro, Domingo

    Tempo Temperatura Precipitação Vento Pressão Humidade
    00:00 +29°C° 0 mm 2 m/s 667 mmHg 29%
    01:00 +29°C° 0 mm 2 m/s 667 mmHg 30%
    02:00 +28°C° 0 mm 2 m/s 666 mmHg 31%
    03:00 +27°C° 0 mm 3 m/s 666 mmHg 31%
    04:00 +27°C° 0 mm 3 m/s 666 mmHg 32%
    05:00 +28°C° 0 mm 2 m/s 666 mmHg 31%
    06:00 +29°C° 0 mm 2 m/s 666 mmHg 29%
    07:00 +29°C° 0 mm 1 m/s 667 mmHg 28%
    08:00 +31°C° 0 mm 2 m/s 667 mmHg 25%
    09:00 +34°C° 0 mm 3 m/s 667 mmHg 23%
    10:00 +35°C° 0 mm 4 m/s 667 mmHg 20%
    11:00 +36°C° 0 mm 5 m/s 667 mmHg 18%
    12:00 +38°C° 0 mm 6 m/s 667 mmHg 17%
    13:00 +39°C° 0 mm 7 m/s 666 mmHg 15%
    14:00 +39°C° 0 mm 7 m/s 666 mmHg 14%
    15:00 +39°C° 0 mm 7 m/s 666 mmHg 13%
    16:00 +39°C° 0 mm 7 m/s 665 mmHg 13%
    17:00 +38°C° 0 mm 7 m/s 665 mmHg 13%
    18:00 +35°C° 0 mm 7 m/s 665 mmHg 14%
    19:00 +34°C° 0 mm 7 m/s 666 mmHg 15%
    20:00 +33°C° 0 mm 7 m/s 666 mmHg 16%
    21:00 +32°C° 0 mm 7 m/s 666 mmHg 17%
    22:00 +29°C° 0 mm 6 m/s 667 mmHg 18%
    23:00 +28°C° 0 mm 6 m/s 667 mmHg 21%

    18 Dezembro, Segunda-feira

    Tempo Temperatura Precipitação Vento Pressão Humidade
    00:00 +27°C° 0 mm 5 m/s 666 mmHg 24%
    01:00 +26°C° 0 mm 5 m/s 666 mmHg 27%
    02:00 +25°C° 0 mm 4 m/s 666 mmHg 27%
    03:00 +23°C° 0 mm 4 m/s 666 mmHg 28%
    04:00 +22°C° 0 mm 4 m/s 666 mmHg 28%
    05:00 +23°C° 0 mm 4 m/s 666 mmHg 26%
    06:00 +23°C° 0 mm 5 m/s 667 mmHg 24%
    07:00 +23°C° 0 mm 5 m/s 667 mmHg 22%
    08:00 +26°C° 0 mm 4 m/s 667 mmHg 19%
    09:00 +28°C° 0 mm 3 m/s 667 mmHg 15%
    10:00 +29°C° 0 mm 2 m/s 667 mmHg 12%
    11:00 +31°C° 0 mm 2 m/s 667 mmHg 11%
    12:00 +32°C° 0 mm 2 m/s 666 mmHg 10%
    13:00 +34°C° 0 mm 2 m/s 666 mmHg 9%
    14:00 +35°C° 0 mm 2 m/s 665 mmHg 9%
    15:00 +36°C° 0 mm 2 m/s 665 mmHg 9%
    16:00 +36°C° 0 mm 2 m/s 664 mmHg 9%
    17:00 +36°C° 0 mm 3 m/s 665 mmHg 10%
    18:00 +35°C° 0 mm 3 m/s 665 mmHg 10%
    19:00 +35°C° 0 mm 4 m/s 665 mmHg 10%
    20:00 +34°C° 0 mm 4 m/s 665 mmHg 10%
    21:00 +32°C° 0 mm 4 m/s 665 mmHg 10%
    22:00 +30°C° 0 mm 4 m/s 666 mmHg 10%
    23:00 +29°C° 0 mm 5 m/s 665 mmHg 12%

    19 Dezembro, Terça-feira

    Tempo Temperatura Precipitação Vento Pressão Humidade
    00:00 +28°C° 0 mm 6 m/s 665 mmHg 14%
    01:00 +27°C° 0 mm 6 m/s 664 mmHg 16%
    02:00 +26°C° 0 mm 6 m/s 664 mmHg 19%
    03:00 +24°C° 0 mm 6 m/s 664 mmHg 22%
    04:00 +23°C° 0 mm 6 m/s 664 mmHg 25%
    05:00 +24°C° 0 mm 6 m/s 665 mmHg 26%
    06:00 +24°C° 0 mm 6 m/s 665 mmHg 26%
    07:00 +26°C° 0 mm 7 m/s 665 mmHg 27%
    08:00 +28°C° 0 mm 6 m/s 666 mmHg 25%
    09:00 +30°C° 0 mm 5 m/s 666 mmHg 24%
    10:00 +33°C° 0 mm 5 m/s 666 mmHg 23%
    11:00 +34°C° 0 mm 3 m/s 665 mmHg 21%
    12:00 +35°C° 0 mm 2 m/s 665 mmHg 19%
    13:00 +35°C° 0 mm 1 m/s 665 mmHg 17%
    14:00 +36°C° 0 mm 1 m/s 664 mmHg 16%
    15:00 +37°C° 0 mm 2 m/s 664 mmHg 15%
    16:00 +37°C° 0 mm 2 m/s 663 mmHg 14%
    17:00 +37°C° 0 mm 3 m/s 664 mmHg 15%
    18:00 +36°C° 0 mm 3 m/s 664 mmHg 16%
    19:00 +36°C° 0 mm 4 m/s 664 mmHg 17%
    20:00 +34°C° 0 mm 5 m/s 664 mmHg 21%
    21:00 +33°C° 0 mm 5 m/s 664 mmHg 25%
    22:00 +32°C° 0 mm 6 m/s 665 mmHg 29%
    23:00 +30°C° 0 mm 5 m/s 664 mmHg 29%

    20 Dezembro, Quarta-feira

    Tempo Temperatura Precipitação Vento Pressão Humidade
    00:00 +30°C° 0 mm 5 m/s 664 mmHg 28%
    01:00 +29°C° 0 mm 4 m/s 664 mmHg 28%
    02:00 +28°C° 0 mm 4 m/s 664 mmHg 28%
    03:00 +28°C° 0 mm 4 m/s 664 mmHg 28%
    04:00 +27°C° 0 mm 4 m/s 663 mmHg 29%
    05:00 +27°C° 0 mm 4 m/s 664 mmHg 29%
    06:00 +28°C° 0 mm 4 m/s 664 mmHg 29%
    07:00 +29°C° 0 mm 4 m/s 665 mmHg 29%
    08:00 +30°C° 0 mm 4 m/s 665 mmHg 25%
    09:00 +33°C° 0 mm 3 m/s 665 mmHg 21%
    10:00 +35°C° 0 mm 3 m/s 665 mmHg 17%
    11:00 +36°C° 0 mm 3 m/s 665 mmHg 15%
    12:00 +37°C° 0 mm 4 m/s 665 mmHg 13%
    13:00 +40°C° 0 mm 4 m/s 665 mmHg 11%
    14:00 +40°C° 0 mm 5 m/s 665 mmHg 10%
    15:00 +40°C° 0 mm 5 m/s 664 mmHg 10%
    16:00 +40°C° 0 mm 6 m/s 664 mmHg 9%
    17:00 +38°C° 0 mm 7 m/s 665 mmHg 11%
    18:00 +37°C° 0 mm 8 m/s 665 mmHg 13%
    19:00 +34°C° 0 mm 9 m/s 665 mmHg 15%
    20:00 +32°C° 0 mm 8 m/s 665 mmHg 16%
    21:00 +30°C° 0 mm 7 m/s 666 mmHg 18%
    22:00 +29°C° 0 mm 6 m/s 666 mmHg 19%
    23:00 +28°C° 0 mm 6 m/s 666 mmHg 22%
    Mostrar mais